GW4756 Weather Reports


time (UTC)temp
F
wind
direction
speed
knots
gust
knots
rain 1hr
in
rain 24hr
in
rain mn
in
humidity
%
barometer
mb
20260508025337 54 180 0.0 0.0 0.00 0.42 0.42 97 1012.4
20260508024837 54 180 0.0 0.0 0.00 0.42 0.42 97 1012.4
20260508024337 54 180 0.0 0.0 0.00 0.42 0.42 97 1012.2
20260508023837 54 180 0.0 0.0 0.00 0.42 0.42 97 1011.8
20260508023337 54 180 0.0 0.0 0.00 0.42 0.42 97 1012.0
20260508022837 54 180 0.0 0.0 0.00 0.42 0.42 97 1012.1
20260508022337 54 180 0.0 0.0 0.00 0.42 0.42 97 1012.0
20260508021837 54 180 0.0 0.0 0.00 0.42 0.42 97 1012.0
20260508021559 54 180 0.0 0.0 0.00 0.42 0.42 97 1012.0
20260508020837 54 180 0.0 0.0 0.00 0.42 0.42 97 1011.9
20260508020337 54 180 0.0 0.0 0.00 0.42 0.42 97 1012.0
20260508020055 54 180 0.0 0.0 0.00 0.42 0.42 97 1012.0
20260508015338 54 180 0.0 0.0 0.00 0.42 0.42 97 1011.9
20260508014837 54 180 0.0 0.0 0.00 0.42 0.42 97 1011.9
20260508014553 54 180 0.0 0.0 0.00 0.42 0.42 97 1011.4
20260508013837 54 180 0.0 0.0 0.00 0.42 0.42 97 1011.3
20260508013337 54 180 0.0 0.0 0.00 0.42 0.42 97 1011.2
20260508012837 54 180 0.0 0.0 0.00 0.42 0.42 97 1011.2
20260508012337 54 180 0.0 0.0 0.00 0.42 0.42 97 1011.2
20260508011837 54 180 0.0 0.0 0.00 0.42 0.42 97 1011.1
20260508011337 54 180 0.0 0.0 0.00 0.42 0.42 97 1011.2
20260508010837 54 180 0.0 0.0 0.00 0.42 0.42 97 1011.2
20260508010337 54 180 0.0 0.0 0.00 0.42 0.42 97 1011.4
20260508005837 54 180 0.0 0.9 0.00 0.42 0.42 97 1011.2
20260508005337 54 180 0.0 0.9 0.00 0.42 0.42 97 1011.1
20260508004837 54 160 0.0 0.0 0.00 0.42 0.42 97 1011.1
20260508004337 54 160 0.0 0.9 0.00 0.42 0.42 97 1010.8
20260508003837 54 160 0.0 0.9 0.00 0.42 0.42 97 1010.8
20260508003337 54 156 0.0 1.7 0.00 0.42 0.42 97 1010.3
20260508003054 54 157 0.0 1.7 0.00 0.42 0.42 97 1010.6
20260508002337 54 141 0.0 1.7 0.00 0.42 0.42 97 1010.6
20260508001837 54 340 0.0 0.9 0.00 0.42 0.42 97 1010.8
20260508001558 54 340 0.0 1.7 0.00 0.42 0.42 97 1010.9
20260508000837 54 341 0.0 1.7 0.00 0.42 0.42 97 1010.7
20260508000554 54 346 0.0 0.0 0.00 0.42 0.42 97 1010.8
20260508000101 54 346 0.0 1.7 0.00 0.42 0.42 97 1010.7
20260507235337 54 346 0.0 1.7 0.00 0.42 0.42 97 1010.4
20260507234837 54 346 0.0 2.6 0.00 0.42 0.42 97 1010.1
20260507234337 54 340 0.9 2.6 0.00 0.42 0.42 97 1010.4
20260507233837 54 10 0.9 1.7 0.00 0.42 0.42 97 1010.1
20260507233336 54 5 0.0 3.5 0.00 0.42 0.42 97 1010.2
20260507232837 55 340 1.7 3.5 0.00 0.42 0.42 97 1009.8
20260507232337 55 105 0.0 1.7 0.00 0.42 0.42 97 1009.5
20260507231837 54 141 0.0 1.7 0.00 0.42 0.42 97 1009.7
20260507231337 54 32 0.9 0.9 0.00 0.42 0.42 97 1009.6
20260507230837 54 322 0.0 2.6 0.00 0.42 0.42 97 1009.7
20260507230337 54 104 0.0 2.6 0.00 0.42 0.42 97 1009.7
20260507225837 55 341 1.7 3.5 0.00 0.42 0.42 97 1009.5
20260507225337 55 334 2.6 3.5 0.00 0.42 0.42 97 1009.7
20260507224837 55 17 0.0 3.5 0.00 0.42 0.42 97 1009.6
20260507224337 55 328 1.7 3.5 0.00 0.42 0.42 97 1009.6
20260507223837 55 277 0.9 5.2 0.00 0.42 0.42 98 1009.7
20260507223337 55 127 1.7 5.2 0.00 0.42 0.42 98 1009.4
20260507222837 54 341 1.7 3.5 0.00 0.42 0.42 98 1009.2
20260507222556 54 356 0.0 3.5 0.00 0.42 0.42 97 1009.5
20260507221837 54 288 0.9 5.2 0.00 0.42 0.42 98 1009.6
20260507221337 54 19 1.7 5.2 0.00 0.42 0.42 97 1010.0
20260507220837 54 32 0.9 3.5 0.00 0.42 0.42 98 1009.7
20260507220557 54 103 2.6 3.5 0.00 0.42 0.42 97 1009.8
20260507215837 54 251 0.9 2.6 0.00 0.42 0.42 98 1009.7
20260507215557 55 278 0.9 3.5 0.00 0.42 0.42 98 1009.5
20260507214837 55 77 0.9 2.6 0.00 0.42 0.42 98 1009.4
20260507214602 55 111 0.9 2.6 0.00 0.42 0.42 98 1009.5
20260507213837 55 340 0.9 3.5 0.00 0.42 0.42 98 1009.6
20260507213337 55 336 2.6 3.5 0.00 0.42 0.42 98 1009.6
20260507212837 55 111 1.7 3.5 0.00 0.42 0.42 98 1009.5
20260507211837 54 176 0.0 1.7 0.00 0.42 0.42 98 1009.4
20260507211337 54 224 0.9 3.5 0.00 0.42 0.42 98 1009.5
20260507210837 54 93 1.7 3.5 0.00 0.42 0.42 98 1009.4
20260507210559 54 215 0.0 3.5 0.00 0.42 0.42 98 1009.1
20260507205837 54 342 0.9 2.6 0.00 0.42 0.42 98 1009.0
20260507205337 54 45 0.0 6.1 0.00 0.42 0.42 98 1009.1
20260507204837 54 32 0.9 7.0 0.00 0.42 0.42 98 1008.8
20260507204337 54 124 0.9 7.0 0.00 0.42 0.42 98 1008.8
20260507203837 54 304 1.7 9.6 0.00 0.42 0.42 98 1009.4
20260507203557 54 212 2.6 9.6 0.00 0.42 0.42 98 1008.9
20260507202837 54 49 0.0 7.0 0.00 0.42 0.42 98 1009.1
20260507202336 54 283 1.7 6.1 0.00 0.42 0.42 98 1008.9
20260507201837 54 327 1.7 6.1 0.00 0.42 0.42 98 1009.0
20260507201337 55 312 4.3 8.7 0.01 0.42 0.42 98 1008.5
20260507200837 55 262 4.3 8.7 0.01 0.42 0.42 98 1008.7
20260507200337 55 30 0.9 7.8 0.01 0.42 0.42 98 1008.8
20260507195837 55 32 1.7 7.8 0.01 0.42 0.42 98 1008.8
20260507195559 56 43 0.9 7.8 0.01 0.42 0.42 98 1008.4
20260507194837 56 345 0.9 6.1 0.01 0.42 0.42 98 1008.6
20260507194336 56 340 3.5 9.6 0.01 0.42 0.42 98 1008.5
20260507193836 56 9 4.3 9.6 0.01 0.43 0.42 98 1008.5
20260507193336 56 359 0.0 2.6 0.01 0.43 0.42 98 1008.7
20260507192837 56 47 0.0 2.6 0.01 0.43 0.41 98 1008.9
20260507192337 56 22 0.0 8.7 0.01 0.44 0.41 98 1008.9
20260507191837 56 358 0.0 8.7 0.01 0.44 0.41 98 1009.1
20260507191337 56 342 0.0 3.5 0.01 0.44 0.41 98 1008.8
20260507190837 56 292 1.7 3.5 0.01 0.44 0.41 98 1009.1
20260507190558 56 355 0.0 8.7 0.01 0.45 0.41 98 1008.7
20260507185837 56 354 0.0 8.7 0.01 0.50 0.41 98 1008.5
20260507185337 57 288 0.0 6.1 0.01 0.53 0.41 98 1008.4
20260507184837 57 11 0.0 6.1 0.01 0.55 0.41 98 1008.1
20260507184337 57 331 0.0 6.1 0.00 0.54 0.41 98 1008.3
20260507184053 57 331 0.0 0.9 0.00 0.54 0.41 98 1008.7
20260507183337 57 343 0.0 5.2 0.00 0.54 0.41 97 1008.5
20260507182837 57 355 0.0 5.2 0.00 0.54 0.41 98 1008.3
20260507182337 58 39 0.9 8.7 0.00 0.54 0.40 97 1007.9
20260507181837 58 308 1.7 8.7 0.00 0.54 0.40 98 1008.2
20260507181337 58 56 0.0 2.6 0.00 0.54 0.40 97 1008.2
20260507180837 58 28 0.9 6.1 0.00 0.54 0.40 97 1007.9
20260507180337 58 95 3.5 6.1 0.00 0.54 0.40 97 1008.1
20260507175837 58 49 1.7 3.5 0.00 0.54 0.40 97 1008.1
20260507175337 58 4 1.7 11.3 0.01 0.54 0.40 97 1008.4
20260507174837 59 343 1.7 11.3 0.01 0.54 0.40 96 1008.8
20260507174337 59 324 3.5 9.6 0.01 0.54 0.40 97 1009.1
20260507173836 60 74 0.9 7.8 0.02 0.54 0.40 96 1009.1
20260507173336 60 347 2.6 7.8 0.02 0.54 0.40 96 1008.4
20260507172837 61 258 0.0 7.0 0.02 0.54 0.40 96 1008.1
20260507172556 62 21 0.0 7.8 0.02 0.54 0.40 95 1008.1
20260507171837 63 0 1.7 8.7 0.03 0.54 0.40 95 1007.7
20260507171558 65 15 0.0 8.7 0.03 0.54 0.40 95 1007.5
20260507170837 67 315 0.0 6.1 0.03 0.54 0.40 98 1007.3
20260507170337 67 319 0.0 0.0 0.03 0.54 0.40 98 1007.1
20260507165837 67 319 0.0 0.0 0.02 0.53 0.40 98 1007.2
20260507165337 67 319 0.0 0.0 0.02 0.53 0.39 98 1007.3
20260507164837 66 310 0.0 0.0 0.02 0.53 0.39 98 1007.6
20260507164337 67 310 0.0 1.7 0.02 0.53 0.39 97 1007.7
20260507163837 67 256 0.0 2.6 0.01 0.52 0.39 97 1008.2
20260507163603 68 244 0.0 3.5 0.01 0.52 0.38 97 1008.5
20260507162837 69 301 0.0 3.5 0.01 0.52 0.38 98 1008.5
20260507162338 69 255 0.0 2.6 0.01 0.52 0.38 98 1008.3
20260507161837 68 280 0.0 5.2 0.01 0.51 0.37 98 1008.5
20260507161557 68 265 0.9 5.2 0.01 0.51 0.37 98 1008.5
20260507160837 68 270 0.0 2.6 0.01 0.51 0.37 98 1008.6
20260507160337 68 256 0.0 5.2 0.01 0.51 0.37 98 1008.6
20260507160057 68 259 0.0 5.2 0.02 0.51 0.37 98 1008.6
20260507154838 68 272 0.9 2.6 0.03 0.51 0.37 98 1008.7
20260507154337 68 264 0.0 2.6 0.03 0.51 0.37 98 1008.4
20260507153837 67 282 0.0 0.9 0.04 0.51 0.37 98 1008.2
20260507153337 67 257 0.0 0.9 0.05 0.50 0.37 98 1008.0
20260507153101 68 279 0.0 0.0 0.06 0.50 0.37 98 1008.7
20260507152337 68 293 0.0 0.0 0.06 0.50 0.37 98 1008.5
20260507151837 68 275 0.0 0.0 0.09 0.50 0.37 98 1008.6
20260507151554 67 324 0.0 0.0 0.09 0.50 0.37 98 1008.6
20260507150837 67 348 0.0 0.0 0.08 0.50 0.36 98 1008.5
20260507150337 67 215 0.0 0.0 0.08 0.50 0.36 98 1008.7
20260507145837 67 215 0.0 0.0 0.08 0.49 0.35 98 1008.8
20260507145337 67 272 0.0 0.0 0.08 0.48 0.35 98 1008.7
20260507144837 67 277 0.0 1.7 0.08 0.48 0.34 98 1009.0
20260507144337 67 288 0.0 1.7 0.09 0.48 0.34 98 1009.0
20260507143837 67 273 0.0 0.0 0.08 0.47 0.33 98 1009.2
20260507143338 67 292 0.0 0.0 0.07 0.46 0.32 98 1008.9
20260507142836 67 292 0.0 1.7 0.06 0.45 0.31 98 1008.9
20260507142337 67 255 0.0 1.7 0.06 0.44 0.30 98 1009.0
20260507141837 67 268 0.0 1.7 0.03 0.42 0.28 97 1008.7
20260507141337 67 316 0.0 2.6 0.03 0.42 0.28 97 1008.8
20260507140837 67 263 0.0 1.7 0.03 0.42 0.28 98 1008.8
20260507140337 67 257 0.0 6.1 0.03 0.42 0.28 98 1008.7
20260507135837 67 254 0.0 6.1 0.02 0.41 0.27 98 1009.1
20260507135337 67 220 0.0 2.6 0.02 0.41 0.27 97 1009.2
20260507134837 67 250 0.0 3.5 0.01 0.40 0.26 97 1009.4
20260507134337 67 259 0.0 3.5 0.00 0.39 0.25 98 1009.4
20260507133837 67 236 0.0 2.6 0.00 0.39 0.25 97 1009.4
20260507133337 67 262 0.0 2.6 0.00 0.39 0.25 97 1009.0
20260507132838 67 254 0.0 0.0 0.00 0.39 0.25 97 1009.2
20260507132603 67 249 0.0 0.9 0.00 0.39 0.25 97 1009.0
20260507131837 66 244 0.0 0.9 0.00 0.39 0.25 97 1009.2
20260507131337 66 263 0.0 0.0 0.00 0.39 0.25 97 1009.1
20260507130837 66 279 0.0 0.0 0.00 0.39 0.25 97 1009.4
20260507130338 66 287 0.0 0.0 0.00 0.39 0.25 97 1009.2
20260507125837 66 262 0.0 0.0 0.00 0.39 0.25 97 1009.2
20260507125337 66 241 0.0 0.0 0.00 0.39 0.25 97 1009.1
20260507124337 66 284 0.0 3.5 0.00 0.39 0.25 97 1009.1
20260507123837 66 312 0.0 0.0 0.00 0.39 0.25 97 1009.6
20260507123337 66 315 0.0 0.0 0.00 0.39 0.25 97 1009.6
20260507122837 66 245 0.0 0.0 0.00 0.39 0.25 97 1009.4
20260507122337 66 245 0.0 0.0 0.02 0.39 0.25 97 1009.4
20260507122056 66 245 0.0 0.0 0.02 0.39 0.25 97 1009.5
20260507121337 66 266 0.0 0.0 0.02 0.39 0.25 97 1009.5
20260507120837 66 311 0.0 1.7 0.02 0.39 0.25 97 1009.2
20260507120556 66 269 0.0 1.7 0.02 0.39 0.25 97 1009.5
20260507115837 66 272 0.0 0.0 0.02 0.39 0.25 97 1009.4
20260507115337 66 267 0.0 0.0 0.02 0.39 0.25 97 1009.4
20260507114836 66 266 0.0 0.0 0.02 0.39 0.25 97 1009.6
20260507114337 66 279 0.0 2.6 0.03 0.39 0.25 97 1009.9
20260507113838 66 251 0.0 2.6 0.02 0.38 0.24 97 1009.9
20260507113337 66 268 1.7 2.6 0.02 0.38 0.24 97 1009.8
20260507112837 66 273 0.0 1.7 0.02 0.38 0.24 97 1009.9
20260507112337 66 261 0.0 2.6 0.02 0.37 0.23 97 1009.9
20260507111837 66 288 0.9 2.6 0.01 0.36 0.22 97 1009.8
20260507111338 66 120 0.0 0.9 0.01 0.36 0.22 97 1009.8
20260507110837 65 269 0.0 1.7 0.01 0.36 0.22 97 1010.0
20260507110337 65 265 0.0 1.7 0.01 0.36 0.22 97 1009.9
20260507105837 65 249 0.0 2.6 0.01 0.36 0.22 97 1009.7
20260507105337 65 249 1.7 2.6 0.01 0.36 0.22 97 1009.2
20260507104837 65 253 0.0 1.7 0.02 0.36 0.22 97 1009.2
20260507104337 65 245 0.0 1.7 0.01 0.36 0.22 97 1009.4
20260507103837 65 281 0.0 2.6 0.01 0.36 0.22 97 1009.2
20260507103338 65 268 0.0 2.6 0.01 0.36 0.22 97 1009.2
20260507102837 65 223 0.9 0.9 0.01 0.36 0.22 97 1009.2
20260507102554 65 221 0.0 0.9 0.01 0.35 0.22 97 1009.5
20260507101837 65 220 0.0 0.9 0.01 0.35 0.22 97 1009.2
20260507101337 65 226 0.0 0.0 0.01 0.35 0.22 96 1009.1
20260507100837 65 227 0.0 0.0 0.01 0.35 0.22 96 1009.4
20260507100337 65 223 0.0 0.0 0.01 0.35 0.21 96 1009.2
20260507095837 65 223 0.0 0.9 0.01 0.35 0.21 96 1009.2
20260507095337 65 285 0.0 0.9 0.01 0.35 0.21 96 1009.4
20260507094837 65 274 0.0 0.9 0.00 0.35 0.21 96 1009.5
20260507094336 65 231 0.0 0.9 0.00 0.35 0.21 96 1009.5
20260507093837 65 224 0.0 1.7 0.00 0.35 0.21 96 1009.6
20260507093337 65 224 0.0 1.7 0.00 0.35 0.21 96 1009.5
20260507092837 65 239 0.0 0.0 0.00 0.35 0.21 96 1009.1
20260507092600 65 239 0.0 0.9 0.00 0.35 0.21 96 1009.0
20260507091838 65 239 0.0 0.9 0.00 0.34 0.21 96 1009.5
20260507091337 65 236 0.0 0.0 0.00 0.34 0.20 96 1009.5
20260507090837 65 236 0.0 0.9 0.00 0.34 0.20 96 1009.5
20260507090608 65 237 0.0 0.9 0.01 0.34 0.20 96 1009.6
20260507085837 65 236 0.0 0.0 0.01 0.34 0.20 96 1009.7
20260507085337 65 236 0.0 0.0 0.01 0.34 0.20 96 1009.4
20260507084837 65 236 0.0 0.0 0.01 0.34 0.20 96 1009.4
20260507084337 65 236 0.0 0.0 0.03 0.34 0.20 96 1009.7
20260507083837 65 236 0.0 0.0 0.03 0.34 0.20 96 1009.7
20260507083337 65 236 0.0 0.0 0.03 0.34 0.20 96 1010.0
20260507082837 65 236 0.0 0.0 0.03 0.34 0.20 96 1010.1
20260507082337 65 236 0.0 0.0 0.03 0.34 0.20 96 1010.3
20260507081836 65 236 0.0 0.0 0.02 0.34 0.20 96 1010.4
20260507081337 65 236 0.0 0.0 0.02 0.34 0.20 96 1010.4
20260507080837 65 236 0.0 0.0 0.02 0.34 0.20 95 1010.1
20260507080337 65 236 0.0 0.0 0.02 0.33 0.20 95 1010.0
20260507075837 65 236 0.0 0.9 0.02 0.33 0.20 95 1009.7
20260507075337 65 236 0.0 0.9 0.02 0.33 0.20 95 1009.7
20260507074837 65 236 0.0 0.9 0.02 0.33 0.19 95 1009.9
20260507074337 65 237 0.9 0.9 0.00 0.31 0.18 95 1010.4
20260507073836 65 236 0.0 0.9 0.00 0.31 0.18 95 1010.9
20260507073337 65 235 0.0 0.0 0.00 0.31 0.18 95 1010.8
20260507073059 65 234 0.0 0.0 0.00 0.31 0.18 95 1010.6
20260507072337 65 234 0.0 0.0 0.00 0.31 0.18 95 1010.5
20260507071837 65 234 0.0 0.0 0.00 0.31 0.18 95 1010.7
20260507071337 65 234 0.0 0.0 0.00 0.31 0.18 95 1010.5
20260507070837 65 234 0.0 0.0 0.00 0.31 0.18 95 1010.6
20260507070337 65 234 0.0 0.0 0.00 0.31 0.18 95 1010.4
20260507065837 65 234 0.0 0.0 0.00 0.31 0.17 95 1010.1
20260507065337 65 234 0.0 0.0 0.00 0.31 0.17 95 1010.4
20260507064837 65 234 0.0 0.0 0.00 0.31 0.17 95 1010.7
20260507064337 65 234 0.0 0.0 0.00 0.31 0.17 95 1011.0
20260507063837 65 234 0.0 0.0 0.00 0.31 0.17 95 1011.2
20260507063555 65 234 0.0 0.0 0.00 0.31 0.17 95 1011.4
20260507062836 65 233 0.0 0.0 0.00 0.31 0.17 94 1011.2
20260507062336 65 230 0.0 1.7 0.01 0.31 0.17 94 1011.1
20260507062056 65 229 0.0 1.7 0.02 0.31 0.17 94 1010.7
20260507061337 65 230 0.0 1.7 0.04 0.31 0.17 94 1011.1
20260507060837 65 273 0.0 1.7 0.05 0.31 0.17 94 1011.5
20260507060337 65 273 0.0 1.7 0.06 0.31 0.17 94 1011.6
20260507055837 65 273 0.0 2.6 0.07 0.31 0.17 94 1011.4
20260507055337 65 273 0.0 2.6 0.08 0.31 0.17 94 1011.3
20260507054837 65 278 2.6 2.6 0.09 0.31 0.17 94 1011.4
20260507054337 65 346 0.0 0.0 0.09 0.31 0.17 94 1011.5
20260507053837 65 346 0.0 0.0 0.11 0.31 0.17 94 1011.1
20260507053337 65 347 0.0 0.0 0.13 0.31 0.17 94 1010.7
20260507052837 65 346 0.0 0.0 0.16 0.31 0.17 93 1010.6
20260507052337 66 345 0.0 0.9 0.16 0.30 0.16 93 1011.0
20260507051838 66 341 0.0 2.6 0.15 0.29 0.16 93 1010.7
20260507051337 66 342 0.0 5.2 0.13 0.28 0.14 92 1010.7
20260507051101 66 264 2.6 5.2 0.12 0.26 0.13 92 1011.2
20260507050337 66 244 0.9 1.7 0.12 0.26 0.12 92 1010.9
20260507045837 67 247 0.9 5.2 0.11 0.24 0.11 91 1011.3
20260507045602 67 268 1.7 8.7 0.09 0.23 0.09 89 1011.9
20260507044838 67 251 5.2 9.6 0.09 0.22 0.09 88 1012.7
20260507044337 68 268 5.2 9.6 0.08 0.22 0.08 87 1012.4
20260507044054 68 273 6.1 8.7 0.06 0.20 0.06 86 1012.7
20260507043338 69 245 2.6 9.6 0.05 0.19 0.05 85 1012.7
20260507042837 69 281 3.5 9.6 0.01 0.15 0.02 84 1012.6
20260507042337 69 256 5.2 8.7 0.01 0.14 0.00 84 1012.8
20260507042052 69 270 3.5 8.7 0.01 0.14 0.00 84 1012.7
20260507041337 69 268 2.6 5.2 0.01 0.14 0.00 84 1012.7
20260507040837 69 271 2.6 3.5 0.01 0.14 0.00 83 1012.5
20260507040557 69 278 2.6 2.6 0.00 0.14 0.00 83 1012.2
20260507035837 69 266 0.9 1.7 0.00 0.14 0.14 83 1012.1
20260507035601 69 271 1.7 1.7 0.00 0.14 0.14 83 1011.9
20260507034837 70 238 0.9 1.7 0.00 0.14 0.14 82 1011.5
20260507034337 70 238 0.9 0.9 0.00 0.14 0.14 81 1011.5
20260507033837 70 238 0.0 1.7 0.00 0.14 0.14 81 1011.4
20260507033336 71 238 0.0 3.5 0.00 0.14 0.14 80 1011.3
20260507032837 71 238 0.9 5.2 0.00 0.14 0.14 78 1011.7
20260507032337 71 231 1.7 5.2 0.00 0.13 0.13 78 1012.0
20260507031837 71 255 1.7 3.5 0.00 0.13 0.13 78 1011.9
20260507031337 71 230 0.0 3.5 0.00 0.13 0.13 78 1011.9
20260507030837 71 249 1.7 5.2 0.00 0.13 0.13 78 1011.7
20260507030337 71 241 0.0 5.2 0.00 0.13 0.13 78 1011.6